shenyang , China , ASIA

  • Wednesday
    July 18

    Cloudy  Sunny

    86 °F  75 °F

    South  South

    5~6L   3~4L 

  • Thursday
    July 19

    Sunny  Sunny

    90 °F  75 °F

    Southwest  Southwest

    4~5L   3~4L 

  • Friday
    July 20

    Sunny  Cloudy

    90 °F  75 °F

    Southwest  Southwest

    4~5L   3~4L 

  • Saturday
    July 21

    Sunny  Sunny

    91 °F  75 °F

    Southwest  Southwest

    4~5L   3~4L 

  • Sunday
    July 22

    Sunny  Sunny

    91 °F  77 °F

    Southwest  Southwest

    3~4L   3~4L 

  • Monday
    July 23

    Sunny  Cloudy

    93 °F  77 °F

    Southwest  Northeast

    3~4L    

  • Tuesday
    July 24

    Cloudy  Cloudy

    91 °F  75 °F

    Northeast  No wind

        

Date   Weather Temperature Humidity Total_rain Visibility Wind
11:00 Cloudy 85°F 70.2% 0mm 999.9km Southwest  3.9m/s
14:00 Cloudy 86°F 73.5% 0mm 999.9km Southwest  3.9m/s
17:00 Cloudy 83°F 74.8% 0mm 999.9km Southwest  3.0m/s
20:00 Cloudy 77°F 76.1% 0mm 999.9km Southwest  1.8m/s
23:00 Sunny 76°F 93.6% 0mm 999.9km Southwest  1.0m/s
02:00 Sunny 76°F 93.6% 0mm 999.9km Southwest  0.7m/s
05:00 Sunny 76°F 94.7% 0mm 999.9km Southwest  0.7m/s
08:00 Sunny 80°F 75.2% 0mm 999.9km Southwest  2.5m/s
11:00 Sunny 87°F 63.3% 0mm 999.9km Southwest  3.6m/s
14:00 Sunny 89°F 63.6% 0mm 999.9km Southwest  4.1m/s
17:00 Sunny 87°F 66.5% 0mm 999.9km Southwest  3.0m/s
20:00 Sunny 83°F 69.7% 0mm 999.9km Southwest  1.5m/s
23:00 Sunny 77°F 91.1% 0mm 999.9km Southwest  1.5m/s
02:00 Sunny 77°F 91.9% 0mm 999.9km Southwest  0.9m/s
05:00 Sunny 76°F 92.5% 0mm 999.9km Southeast  0.7m/s
08:00 Sunny 82°F 62.8% 0mm 999.9km Southwest  2.2m/s
11:00 Sunny 87°F 65% 0mm 999.9km Southwest  3.7m/s
14:00 Sunny 89°F 65% 0mm 999.9km Southwest  4.1m/s
17:00 Sunny 89°F 66% 0mm 999.9km Southwest  3.3m/s
20:00 Sunny 82°F 76% 0mm 999.9km Southwest  1.4m/s
23:00 Cloudy 79°F 77.6% 0mm 999.9km Southwest  1.3m/s
02:00 Cloudy 76°F 93.4% 0mm 999.9km Southwest  1.2m/s
05:00 Cloudy 76°F 93.6% 0mm 999.9km Southeast  0.7m/s
08:00 Cloudy 80°F 66.7% 0mm 999.9km Southwest  1.4m/s
11:00 Sunny 85°F 61.5% 0mm 999.9km Southwest  2.8m/s
14:00 Sunny 91°F 59.8% 0mm 999.9km Southwest  2.8m/s
17:00 Sunny 91°F 60.5% 0mm 999.9km Southwest  2.5m/s
20:00 Sunny 86°F 70% 0mm 999.9km Southwest  2.5m/s
23:00 Sunny 81°F 75.5% 0mm 999.9km Southeast  1.2m/s
02:00 Sunny 78°F 93.8% 0mm 999.9km Southwest  0.5m/s
05:00 Sunny 76°F 93.4% 0mm 999.9km Southeast  0.5m/s
08:00 Sunny 79°F 83% 0mm 999.9km Southwest  1.4m/s
11:00 Sunny 88°F 64.4% 0mm 999.9km Southwest  2.2m/s
14:00 Sunny 91°F 62.3% 0mm 999.9km Southwest  2.9m/s
17:00 Sunny 88°F 66.6% 0mm 999.9km Southwest  2.0m/s
20:00 Sunny 84°F 80.6% 0mm 999.9km Southwest  0.6m/s
23:00 Sunny 81°F 95.9% 0mm 999.9km Southwest  0.9m/s
02:00 Sunny 79°F 82.3% 0mm 999.9km Southwest  0.6m/s
05:00 Sunny 77°F 78% 0mm 999.9km Southwest  0.5m/s
08:00 Sunny 83°F 76.7% 0mm 999.9km Southwest  1.1m/s
11:00 Sunny 92°F 61.8% 0mm 999.9km Southwest  0.8m/s
14:00 Sunny 93°F 60% 0mm 999.9km Southwest  1.9m/s
17:00 Sunny 92°F 77.8% 0mm 999.9km Southwest  1.2m/s
20:00 Sunny 86°F 83.9% 0mm 999.9km Southwest  0.9m/s
23:00 Cloudy 84°F 89.4% 0mm 999.9km Southwest  0.7m/s
02:00 Cloudy 79°F 92.8% 0mm 999.9km Southwest  0.8m/s
05:00 Cloudy 77°F 91% 0mm 999.9km Southeast  0.6m/s
08:00 Cloudy 84°F 79% 0mm 999.9km Southeast  0.8m/s
11:00 Cloudy 87°F 71.6% 0mm 999.9km Northeast  2.0m/s
14:00 Cloudy 91°F 68.3% 0mm 999.9km Southeast  3.2m/s
17:00 Cloudy 87°F 70.7% 0mm 999.9km Northeast  1.8m/s
20:00 Cloudy 83°F 73.2% 0mm 999.9km Northeast  1.6m/s
23:00 Sunny 80°F 87.7% 0mm 999.9km Northeast  1.9m/s
02:00 Cloudy 80°F 88% 0mm 999.9km Northeast  1.0m/s
05:00 Cloudy 77°F 89.5% 0mm 999.9km Northeast  0.4m/s